Location: Gourdan-Polignan
(43.0709°N, 0.5748°E)
Time: 13:09:33
(UTC+00:00)

Cosmos 1606 Rocket - Pass Details

Date: 15 May 2026
Orbit: 596 x 624 km, 82.5° (Epoch: 11 June)

Event Time Altitude Azimuth Distance (km) Brightness Sun altitude
Exits shadow 21:17:16 39° 128° (SE) 911 3.9 -18.2°
Maximum altitude 21:18:10 46° 93° (E) 823 3.9 -18.3°
Drops below altitude 10° 21:22:18 10° 21° (NNE) 1,955 6.5 -18.8°
Sets 21:24:34 0° 15° (NNE) 2,859 7.5 -19.0°
